{"data":{"norad_id":64931,"epoch":"2026-09-20T22:57:16.401312Z","epoch_age_seconds":84802,"freshness":"FRESH","line1":"1 64931U 25157AD  26263.95643983  .00014124  00000+0  42872-3 0  9996","line2":"2 64931  53.1581 155.5782 0001717  66.3315 293.7867 15.34373109 66067","mean_motion":15.34373109,"eccentricity":0.0001717,"inclination_deg":53.1581,"raan_deg":155.5782,"arg_perigee_deg":66.3315,"mean_anomaly_deg":293.7867,"bstar":0.00042872,"rev_number":6606,"period_min":93.849402831264,"perigee_km":461.60858110073,"apogee_km":463.95775308611,"semimajor_km":6840.9201670934,"source":"CELESTRAK","updated_at":"2026-09-21T09:00:35.485418Z"}}